Vertical_Velocity
2 1 2 -2 -2 1 -0 2 2 2 0 1 -6 6 -8 11 -4 7 -13 -1 -13 -1 -1 -4 -6 8 11 8 -2 -26 29 17 7 7 1 -5 3 -8 9 -8 -9 -7 0 -1 3 4 -4 -2 4 2 -25 -6 -1 -2
2 0 1 2 1 -0 3 -1 1 3 1 4 -5 -3 -8 12 4 15 2 -2 4 13 4 -1 -3 -11 17 -21 7 5 -39 -3 -9 5 4 3 2 2 -2 -2 0 14 -10 -3 -2 -8 -5 -5 -5 -7 5 -1 2 1
5 2 -5 -1 -2 -0 -0 1 -3 10 -1 2 10 -1 -8 4 20 -8 -7 -2 27 -3 7 -1 -6 -7 -2 -6 -6 10 4 1 9 -22 -4 -4 0 2 -1 -8 4 1 0 3 24 -16 -5 -0 -6 0 -1 -2 3 -2
5 1 -0 6 -5 16 -2 -2 1 -1 2 -1 0 6 11 25 14 0 -13 -0 -15 -9 -1 -3 -13 7 -6 -5 -5 -3 8 28 21 4 0 -1 1 1 -3 -8 2 -11 7 -3 -6 -4 4 -2 -6 -2 2 -3 -3 2
8 2 -0 5 -16 42 -4 -4 -7 10 2 7 -3 8 14 15 14 -4 10 -1 -7 -15 -5 -6 1 -3 -6 -4 -10 -9 -4 10 -3 7 1 -3 -0 6 -1 6 0 -3 -10 1 -8 -6 2 -11 3 -3 -0 1 1 -2
4 -3 4 -2 -3 -3 25 13 7 10 -6 -6 3 7 24 -5 -5 -21 -13 11 16 -10 -3 1 -8 9 7 -0 -1 -1 -8 3 8 -2 -6 -5 -11 16 2 -0 -12 -6 0 -3 -8 9 -1 2 -0 4 3 -8 1 6
-7 -3 2 -4 -3 3 0 0 0 2 2 3 22 24 -2 1 2 -3 -11 -34 -8 -2 -1 -2 -1 4 1 11 -3 -1 -5 -8 11 -4 2 -0 1 -1 2 0 -8 1 5 7 12 -1 -2 1 6 -2 -2 2 1 -2
7 -3 -1 1 2 1 -2 6 -1 2 4 27 4 1 9 16 -16 -3 -2 8 -11 -8 -2 0 -4 -1 9 0 3 2 -3 5 1 -4 3 2 4 2 2 -8 -5 -6 6 -5 -3 -3 4 1 -1 2 -1 -3 2 -0
1 8 5 1 1 3 3 7 4 -2 1 11 11 4 -9 -12 -7 9 -1 2 20 7 -3 0 1 0 -11 2 0 15 0 5 -3 1 -0 9 1 -1 -7 -3 -2 -3 -2 1 8 3 1 1 -0 -1 -1 3 -1 -0
1 3 1 3 3 1 1 1 1 -4 -8 -6 -16 -18 -4 12 -7 -18 5 5 -2 -4 4 -1 -0 0 -5 -2 2 -2 2 -1 0 -7 5 3 -4 -7 -0 -2 -1 2 0 -5 0 2 1 2 1 -0 1 0 -0 0
1 2 3 1 3 1 -1 -3 -3 -5 -10 -11 -3 4 5 -6 5 3 0 -0 1 2 2 -0 -6 -1 5 -2 0 -3 -1 -1 2 -2 3 -0 -0 -1 -0 1 -1 -3 -0 1 -1 1 0 1 -0 2 2 6 6 3
-1 -1 -1 2 3 4 3 7 8 9 -4 5 -12 -3 3 -5 4 -1 -0 3 2 -4 2 0 -1 -0 2 -0 0 2 -0 2 -1 -1 3 1 6 2 -1 1 1 1 2 3 1 2 3 -0 0 -2 0 -4 -1 -0
-1 -1 -0 1 2 -3 -6 -3 -0 -1 4 -1 -12 -6 2 2 4 1 1 2 2 -0 2 1 3 -3 2 -1 -0 0 3 1 -1 1 2 4 5 3 2 3 3 4 3 2 1 0 0 -1 4 -2 -2 3 2 2
-4 -1 -2 -3 -4 -2 5 10 4 -4 -7 -4 -0 3 2 1 -0 2 1 1 2 2 -1 -3 -1 1 -0 3 -1 -1 3 0 3 0 3 2 3 3 1 1 -0 3 2 2 1 2 -0 2 -2 3 3 10 3 2
3 1 0 2 -2 0 -14 -13 -13 -19 0 -3 1 2 0 4 -0 -0 1 -1 -2 -1 2 1 2 1 -0 -0 -0 -2 1 1 3 4 3 4 6 3 2 3 2 2 3 3 4 1 1 2 3 2 5 3 2 2
0 -1 -6 -12 -12 -12 4 -4 -10 -2 -1 -4 -6 -0 -4 2 1 -2 -1 1 4 1 1 1 -0 -0 1 -0 -3 1 -2 3 5 2 5 2 2 2 2 2 1 2 3 -0 2 2 2 1 -2 -1 2 2 0 -1
-2 -11 4 5 -2 2 8 11 2 -4 0 -1 2 -0 5 1 5 1 3 1 -0 1 0 0 -2 6 1 -2 -1 1 3 4 3 4 4 4 2 2 3 3 4 3 2 2 1 1 -1 2 2 1 -6 3 0 0
3 -1 -0 3 2 0 -2 -5 -2 -2 -1 -0 -2 6 0 1 1 -2 -1 -2 0 0 -2 3 1 -4 1 0 1 4 2 4 3 3 4 4 2 3 3 1 2 -0 -0 -0 -1 -1 0 -1 -3 -3 -1 -0 -1 0
0 2 2 3 -3 -3 -3 -4 -0 -1 4 0 -0 -3 0 4 3 3 4 4 3 2 -2 -3 -4 1 3 2 2 4 2 1 1 7 5 6 4 3 4 5 2 1 1 2 1 -0 1 2 1 1 1 1 -1 2
1 -2 -6 -4 -5 -9 -4 -1 -5 -4 1 -1 -0 -4 -4 2 2 2 -2 -6 -0 -5 -5 -2 3 5 5 7 4 0 -1 1 -2 -1 5 3 4 1 2 2 1 5 2 2 -0 1 -1 -3 -1 -0 -0 -0 -3 -2
2 -0 1 -4 -9 -4 -2 1 -1 -1 -0 -1 -3 -2 -0 -0 -6 -4 -2 1 -12 1 0 5 4 3 4 7 7 11 11 8 4 -3 2 0 7 2 1 3 2 -0 -2 1 -1 -1 -1 -2 -2 -1 -0 -1 -0 -2
0 3 1 -1 -3 -2 -2 -1 -2 -2 -1 -4 -0 -1 -0 -2 0 1 1 -13 -0 9 4 4 7 4 0 0 3 1 6 -3 -0 -0 3 4 -0 -1 1 2 -2 -2 -2 -0 -1 -1 -1 2 -0 -3 -3 -3 -2 0
-2 -2 -1 1 -1 -2 3 5 0 1 -0 2 -2 -2 -0 -0 1 2 -3 1 3 4 9 -3 4 5 1 6 3 3 3 2 -3 -1 -1 -1 0 0 -1 0 1 -1 -0 1 0 -3 -5 -2 1 1 1 1 2 2
2 -5 -3 -2 -2 2 -1 -1 -1 -1 -1 -2 -1 -0 -0 2 1 -4 1 2 5 5 -2 6 5 -0 2 2 -1 2 2 3 -1 -1 1 -1 -2 -0 0 -1 -1 -2 -3 -1 -1 0 3 3 3 2 0 -2 -4 -4
-11 -3 -1 -0 -1 -2 -2 -1 -1 -3 0 1 -1 1 2 0 -2 -1 1 4 -1 0 3 0 1 1 -3 2 1 1 5 5 2 -4 1 -1 -2 -1 -1 -1 -0 1 4 3 2 3 1 -2 -4 -5 -5 -4 -2 -2
-5 2 -1 3 1 -2 2 -0 0 2 -0 -0 1 1 -1 -2 -3 3 3 5 1 1 4 4 0 -1 -1 3 1 1 1 2 0 -5 -1 2 3 2 1 1 2 -0 0 -1 -3 -4 -4 -4 -4 -2 -2 -3 -2 -1
-2 2 0 -0 1 1 -1 -1 -1 -3 -1 1 1 -1 -1 -1 2 6 2 -0 3 2 3 3 3 1 1 1 1 0 1 2 1 -2 -0 2 0 -1 -1 -2 -2 -3 -2 -3 -4 -3 -2 -2 -2 -2 -1 -0 -1 -2
4 -3 -2 4 -3 1 -0 -1 -1 1 1 -1 -1 -1 0 3 6 6 4 1 2 2 1 0 -1 -0 -0 1 2 3 1 0 -0 -1 -1 -1 -2 -2 -1 -2 -2 -2 -2 -2 -2 -2 -2 -1 -0 -1 -1 -2 -2 -2
-1 3 -4 -1 -1 -2 1 2 3 2 -1 4 0 1 3 -0 14 7 6 3 4 4 2 2 1 0 -1 -0 -1 -2 -2 0 1 -1 -1 -2 -2 -2 -2 -2 -2 -2 -2 -2 -1 -0 -1 -2 -2 -2 -1 -1 -1 -0
2 2 -3 -1 -2 2 6 1 2 4 -2 -3 -6 1 -2 -1 3 7 3 1 -1 -2 -0 -1 -0 0 -1 1 0 -1 -2 -2 -4 0 1 -0 -1 -1 -2 -2 -1 -1 -1 -1 -2 -2 -1 -2 -2 -1 -1 -1 -1 -3
2 -3 -3 -2 1 3 2 1 -4 -6 -3 1 5 -7 1 -1 1 2 0 2 0 -1 -1 -2 -2 -2 -1 -1 -1 0 -1 -1 -1 -0 -1 -1 -1 -1 -0 -0 -1 -2 -3 -1 -1 -0 -1 -1 0 -0 -2 -3 -2 -1
-2 -0 -3 -0 3 -2 -1 5 -0 1 5 -1 2 -3 -1 -1 0 0 1 1 1 -1 -1 -2 -1 -1 -1 -1 -1 -1 -0 -1 -0 -0 0 0 -1 -2 -2 -3 -2 -1 -0 -1 -1 -0 -0 -1 -1 -2 -2 -1 0 1
-1 -2 -2 -2 1 2 -2 3 1 0 0 1 -0 -1 -2 2 3 -0 -0 -1 -0 -1 -2 -2 -1 -1 -1 -0 -1 -1 -0 -0 -0 -1 -2 -3 -2 -1 -1 -0 -0 -1 -1 -0 -0 -0 -1 -1 -1 -0 0 1 -0 -1
Height
1230 1220 1213 1208 1202 1199 1198 1198 1203 1213 1225 1238 1252 1266 1278 1289 1305 1322 1332 1347 1356 1363 1368 1373 1377 1379 1386 1389 1392 1394 1403 1406 1409 1413 1418 1409 1403 1397 1399 1396 1401 1420 1423 1424 1421 1426 1428 1402 1406 1409 1402 1400 1402 1404
1217 1208 1201 1195 1187 1181 1180 1183 1187 1198 1213 1228 1243 1258 1271 1283 1301 1319 1330 1346 1357 1365 1371 1371 1375 1377 1377 1383 1389 1389 1385 1391 1391 1398 1400 1402 1398 1394 1395 1400 1391 1403 1405 1407 1404 1402 1397 1398 1396 1396 1398 1398 1399 1402
1206 1199 1193 1185 1175 1165 1162 1168 1179 1191 1206 1222 1237 1255 1269 1283 1299 1314 1329 1342 1355 1364 1370 1372 1375 1377 1378 1380 1388 1391 1388 1383 1387 1390 1392 1395 1398 1392 1399 1394 1391 1389 1391 1394 1398 1393 1393 1395 1396 1397 1397 1399 1400 1401
1200 1195 1190 1181 1166 1141 1127 1150 1170 1188 1204 1222 1238 1256 1271 1285 1300 1316 1327 1340 1351 1361 1368 1369 1373 1375 1379 1379 1383 1387 1388 1382 1385 1388 1389 1390 1393 1382 1387 1386 1385 1386 1387 1391 1388 1388 1388 1390 1392 1393 1395 1396 1397 1399
1199 1193 1191 1185 1170 1155 1152 1159 1174 1192 1211 1227 1245 1261 1276 1289 1304 1319 1332 1343 1353 1362 1363 1368 1371 1374 1376 1379 1380 1386 1386 1387 1388 1385 1387 1391 1384 1381 1381 1381 1379 1381 1381 1383 1387 1385 1385 1384 1388 1390 1390 1392 1392 1395
1203 1198 1195 1193 1188 1180 1178 1184 1194 1207 1223 1239 1254 1270 1277 1290 1305 1317 1336 1346 1354 1357 1364 1367 1368 1366 1371 1375 1380 1383 1385 1386 1384 1379 1385 1386 1384 1383 1384 1380 1379 1379 1378 1380 1380 1383 1384 1384 1384 1384 1385 1388 1392 1390
1215 1207 1203 1200 1200 1202 1203 1207 1215 1225 1237 1249 1262 1270 1285 1299 1316 1327 1335 1338 1349 1359 1364 1365 1361 1360 1365 1371 1374 1377 1381 1383 1384 1380 1379 1380 1381 1381 1381 1378 1374 1373 1373 1374 1378 1383 1383 1383 1383 1383 1384 1385 1385 1387
1229 1222 1217 1214 1213 1214 1218 1223 1230 1240 1250 1261 1270 1284 1300 1311 1322 1333 1337 1341 1350 1359 1365 1365 1361 1359 1362 1364 1369 1371 1375 1380 1378 1378 1377 1376 1378 1380 1374 1370 1372 1372 1372 1375 1379 1383 1383 1382 1382 1383 1383 1385 1386 1387
1243 1239 1234 1232 1232 1234 1236 1241 1246 1253 1262 1273 1285 1296 1307 1321 1329 1336 1340 1348 1354 1359 1359 1362 1357 1356 1358 1357 1358 1365 1373 1373 1373 1370 1374 1373 1372 1371 1365 1365 1366 1366 1368 1372 1377 1379 1380 1380 1382 1383 1385 1386 1388 1391
1256 1253 1252 1251 1252 1253 1256 1260 1265 1272 1279 1289 1301 1312 1323 1330 1335 1341 1350 1353 1356 1355 1354 1356 1355 1354 1358 1358 1354 1361 1363 1366 1371 1371 1370 1369 1360 1361 1364 1365 1366 1367 1369 1373 1377 1378 1378 1379 1381 1383 1385 1387 1390 1394
1268 1267 1267 1267 1268 1270 1273 1278 1284 1290 1298 1305 1311 1318 1327 1333 1337 1339 1343 1347 1349 1347 1346 1347 1351 1350 1355 1359 1354 1354 1360 1359 1361 1358 1360 1355 1355 1358 1364 1366 1368 1370 1372 1374 1376 1376 1377 1378 1381 1384 1387 1390 1393 1396
1281 1281 1281 1282 1284 1286 1290 1296 1302 1304 1306 1309 1312 1323 1332 1335 1335 1336 1338 1342 1342 1338 1339 1339 1343 1346 1348 1349 1354 1350 1347 1353 1346 1350 1353 1350 1366 1367 1367 1369 1371 1373 1375 1375 1376 1378 1379 1380 1383 1384 1386 1389 1393 1395
1292 1292 1294 1296 1298 1300 1302 1306 1308 1311 1313 1318 1322 1328 1331 1334 1332 1330 1333 1331 1332 1330 1332 1336 1340 1342 1344 1345 1347 1344 1342 1344 1349 1349 1354 1366 1370 1371 1371 1372 1373 1375 1376 1376 1377 1379 1379 1382 1385 1387 1390 1394 1396 1399
1302 1303 1305 1307 1308 1309 1311 1312 1315 1317 1319 1323 1326 1328 1328 1330 1325 1324 1322 1325 1325 1325 1328 1329 1336 1337 1338 1341 1339 1338 1345 1347 1343 1344 1359 1372 1374 1374 1373 1374 1374 1376 1377 1378 1378 1381 1384 1387 1389 1393 1397 1400 1401 1405
1309 1312 1314 1317 1318 1318 1319 1318 1319 1319 1319 1324 1325 1327 1328 1333 1334 1336 1336 1337 1338 1337 1335 1334 1335 1334 1334 1331 1332 1335 1340 1344 1349 1357 1370 1377 1376 1376 1376 1377 1378 1380 1382 1382 1384 1387 1391 1395 1397 1400 1405 1408 1412 1415
1317 1319 1321 1322 1322 1325 1324 1324 1326 1326 1327 1331 1336 1335 1338 1335 1336 1337 1338 1337 1337 1336 1336 1335 1333 1334 1335 1336 1340 1346 1342 1352 1366 1373 1377 1378 1378 1379 1380 1382 1384 1386 1387 1389 1393 1396 1399 1402 1405 1409 1413 1417 1420 1423
1322 1323 1324 1327 1327 1328 1327 1327 1327 1328 1332 1337 1343 1343 1339 1339 1342 1344 1343 1341 1338 1338 1337 1336 1334 1337 1340 1343 1351 1358 1366 1373 1377 1380 1381 1383 1384 1387 1389 1390 1392 1394 1397 1399 1402 1406 1408 1412 1415 1418 1420 1425 1428 1430
1324 1326 1327 1328 1329 1328 1326 1328 1332 1337 1341 1343 1343 1350 1350 1349 1347 1344 1345 1344 1341 1340 1343 1347 1348 1348 1352 1354 1362 1375 1380 1382 1383 1385 1387 1389 1391 1393 1396 1397 1399 1403 1405 1408 1411 1415 1417 1420 1423 1427 1429 1432 1434 1435
1327 1327 1329 1330 1329 1329 1333 1338 1340 1346 1353 1354 1354 1354 1354 1356 1356 1353 1348 1346 1345 1345 1349 1357 1364 1368 1373 1378 1378 1381 1384 1387 1390 1393 1394 1397 1400 1402 1404 1406 1408 1412 1414 1417 1419 1421 1424 1427 1430 1434 1436 1438 1439 1441
1328 1330 1331 1331 1331 1335 1341 1346 1348 1351 1354 1359 1359 1361 1360 1362 1362 1361 1358 1354 1353 1357 1368 1379 1386 1389 1387 1386 1384 1387 1390 1393 1394 1397 1401 1406 1409 1410 1412 1414 1417 1420 1421 1423 1426 1428 1430 1432 1435 1437 1439 1441 1442 1443
1332 1333 1334 1335 1336 1339 1345 1348 1351 1355 1358 1361 1363 1364 1366 1366 1365 1364 1363 1364 1366 1382 1391 1396 1396 1394 1393 1390 1391 1393 1396 1398 1400 1404 1407 1411 1415 1416 1418 1421 1423 1425 1427 1430 1431 1434 1435 1437 1439 1441 1442 1442 1444 1445
1335 1337 1338 1339 1342 1347 1350 1352 1354 1356 1359 1363 1364 1367 1368 1370 1372 1375 1378 1378 1394 1401 1401 1401 1400 1399 1398 1398 1399 1400 1401 1402 1406 1409 1413 1415 1418 1422 1425 1428 1430 1431 1433 1435 1436 1437 1439 1441 1441 1443 1444 1445 1445 1445
1339 1340 1341 1343 1346 1351 1358 1356 1357 1359 1360 1365 1369 1372 1376 1380 1385 1387 1394 1404 1410 1410 1409 1408 1407 1406 1405 1406 1405 1406 1408 1409 1410 1414 1418 1421 1424 1428 1431 1434 1436 1436 1437 1438 1439 1440 1441 1443 1443 1443 1444 1445 1446 1445
1340 1342 1347 1350 1353 1357 1359 1361 1362 1363 1367 1370 1373 1377 1382 1385 1389 1394 1405 1414 1418 1415 1413 1412 1412 1412 1411 1411 1413 1415 1417 1417 1418 1421 1424 1426 1429 1433 1435 1437 1438 1439 1440 1442 1442 1443 1444 1443 1443 1443 1444 1444 1445 1447
1347 1360 1360 1360 1363 1363 1364 1368 1369 1368 1374 1376 1379 1384 1389 1390 1393 1403 1411 1420 1421 1420 1419 1418 1418 1418 1418 1420 1421 1422 1424 1425 1425 1426 1432 1433 1435 1437 1439 1440 1441 1442 1444 1443 1443 1444 1443 1444 1445 1446 1447 1447 1448 1449
1360 1372 1373 1373 1374 1373 1374 1374 1378 1379 1380 1384 1389 1393 1393 1394 1401 1411 1420 1426 1426 1426 1425 1424 1424 1423 1423 1425 1426 1428 1430 1431 1431 1431 1436 1440 1442 1442 1442 1442 1442 1443 1443 1444 1445 1446 1446 1447 1448 1449 1450 1449 1448 1448
1375 1380 1384 1386 1385 1383 1385 1388 1389 1390 1391 1393 1395 1396 1396 1400 1411 1423 1428 1429 1429 1428 1427 1427 1427 1427 1428 1429 1431 1432 1434 1435 1435 1437 1438 1439 1440 1441 1442 1443 1444 1446 1446 1447 1447 1449 1449 1449 1449 1449 1449 1449 1447 1446
1387 1390 1391 1395 1394 1395 1396 1399 1402 1405 1406 1408 1405 1407 1408 1413 1422 1430 1431 1431 1429 1429 1429 1430 1430 1432 1433 1435 1437 1438 1439 1440 1441 1442 1442 1443 1444 1445 1446 1446 1447 1448 1448 1449 1449 1449 1449 1448 1448 1448 1447 1447 1446 1446
1395 1397 1398 1402 1401 1406 1413 1414 1416 1417 1417 1414 1411 1415 1423 1429 1431 1433 1434 1434 1434 1435 1435 1435 1437 1438 1439 1440 1441 1441 1442 1445 1446 1446 1447 1448 1448 1449 1449 1449 1450 1450 1450 1449 1449 1448 1448 1448 1447 1447 1447 1447 1446 1445
1400 1400 1403 1409 1413 1419 1424 1424 1423 1421 1420 1419 1421 1425 1428 1432 1433 1434 1436 1437 1438 1438 1439 1440 1442 1444 1445 1445 1445 1446 1446 1447 1447 1450 1450 1450 1450 1450 1450 1450 1450 1450 1450 1450 1449 1448 1448 1447 1447 1447 1446 1446 1445 1444
1404 1405 1409 1416 1423 1429 1428 1428 1427 1426 1425 1425 1428 1430 1432 1436 1438 1438 1439 1441 1442 1443 1444 1445 1446 1447 1448 1449 1450 1450 1450 1450 1450 1450 1450 1450 1450 1450 1450 1450 1450 1450 1450 1449 1449 1449 1448 1447 1447 1446 1445 1445 1444 1443
1409 1411 1415 1420 1427 1429 1429 1430 1430 1430 1431 1432 1433 1435 1437 1438 1441 1443 1443 1444 1445 1446 1447 1449 1450 1450 1451 1451 1451 1451 1452 1452 1452 1452 1451 1451 1450 1451 1450 1450 1450 1449 1449 1449 1449 1448 1447 1446 1446 1445 1444 1443 1442 1440
1416 1417 1418 1421 1425 1427 1429 1429 1430 1433 1433 1434 1437 1438 1439 1440 1443 1445 1445 1446 1448 1448 1449 1450 1451 1452 1452 1452 1453 1453 1452 1453 1452 1452 1452 1451 1450 1450 1449 1449 1449 1449 1449 1448 1447 1447 1446 1445 1444 1443 1442 1440 1439 1438